Arroyo de Enmedio, Mexico

6:49 PM MST en Diciembre 12, 2017 (GMT -0700)
Arroyo de Enmedio

Tiempo Historia de 76258 - Diciembre, 2017

Change the Weather History Date:

Jueves, Diciembre 7, 2017

  Actual Average Record
Temperature  
Temperatura media 68 ° F -  
Temperatura máxima 81 ° F - - ()
Temperatura mínima 58 ° F - - ()
Cooling Degree Days 3    
Growing Degree Days 18 (Base 50)    
Moisture  
Punto de rocío 47 ° F    
Average Humidity 53    
Maximum Humidity 100    
Minimum Humidity 14    
Precipitación  
Precipitación 0.00 pul - - ()
Presión al nivel del mar  
Presión al nivel del mar 29.96 pul    
Viento  
Velocidad del viento 9 mph ()    
Velocidad máxima del viento 29 mph    
Max Gust Speed -    
Visibilidad 9.8 Millas    
Eventos      
T = Trace of Precipitation, MM = Missing Value Source: Averaged Metar Reports

Daily Weather History Graph

Daily Weather History Graph

Search for Another Location

Airport or City:

Trip Planner

Search our weather history database for the weather conditions in past years. The results will help you decide how hot, cold, wet, or windy it might be!

Date:

Astronomía

Dec. 07, 2017 Salida Puesta
Hora real 6:57 AM MST 5:25 PM MST
Crepúsculo civil 6:31 AM MST 5:50 PM MST
Crepúsculo náutico 6:02 AM MST 6:19 PM MST
Crepúsculo astronómico 5:34 AM MST 6:48 PM MST
Luna 10:06 PM MST (12/7) 10:47 AM MST (12/7)
Horas de luz 11h 19m
Horas de luz
10h 28m
Gibosa menguante, 77% of the Moon is Illuminated
Dic 7
Gibosa menguante
Dic 10
Cuarto menguante
Dic 17
Nueva
Dic 26
Cuarto creciente
Ene 1
Luna llena

Hourly Weather History & Observations

Hora (MST) Temp. Punto de rocío Humedad Presión Visibilidad Wind Dir Velocidad del viento Velocidad de ráfagas Precip Eventos Condiciones
12:40 AM 66.2 ° F 53.6 ° F 64% 29.96 pul 10.0 mi NO 9.2 mph - N/A   Parcialmente nublado
5:58 AM 59.0 ° F 57.2 ° F 94% 29.96 pul 10.0 mi Norte 2.3 mph - N/A   Muy nublado
6:44 AM 59.0 ° F 57.2 ° F 94% 29.97 pul 10.0 mi NNO 4.6 mph - N/A   Muy nublado
7:41 AM 59.0 ° F 59.0 ° F 100% 29.98 pul 10.0 mi ONO 2.3 mph - N/A   Nubes dispersas
7:50 AM 60 ° F 59 ° F 96% 29.99 pul 12 mi ONO 4.5 mph - -   Nubes dispersas
8:40 AM 62.6 ° F 60.8 ° F 94% 29.97 pul 10.0 mi NNO 8.1 mph - N/A   Parcialmente nublado
9:40 AM 68.0 ° F 57.2 ° F 68% 29.98 pul 10.0 mi NO 11.5 mph - N/A   Parcialmente nublado
10:45 AM 69.8 ° F 57.2 ° F 64% 29.98 pul 10.0 mi NO 9.2 mph - N/A   Despejado
10:50 AM 71 ° F 57 ° F 52% 30.00 pul 12 mi NO 20.1 mph - -   Nubes dispersas
11:48 AM 73.4 ° F 55.4 ° F 53% 29.96 pul 10.0 mi NO 11.5 mph - N/A   Despejado
12:47 PM 75.2 ° F 51.8 ° F 44% 29.92 pul 10.0 mi ONO 15.0 mph - N/A   Parcialmente nublado
1:41 PM 75.2 ° F 50.0 ° F 41% 29.90 pul 10.0 mi ONO 5.8 mph - N/A   Parcialmente nublado
2:42 PM 78.8 ° F 44.6 ° F 30% 29.89 pul 12.0 mi NO 16.1 mph - N/A   Parcialmente nublado
3:41 PM 78.8 ° F 37.4 ° F 23% 29.88 pul 12.0 mi NNO 5.8 mph - N/A   Parcialmente nublado
4:44 PM 78.8 ° F 30.2 ° F 17% 29.89 pul 12.0 mi NNO 19.6 mph - N/A   Despejado
5:40 PM 75.2 ° F 23.0 ° F 14% 29.90 pul 12.0 mi Norte 13.8 mph - N/A   Despejado
6:42 PM 68.0 ° F 26.6 ° F 21% 29.93 pul 10.0 mi NNO 10.4 mph - N/A   Despejado
7:50 PM 68 ° F 39 ° F 23% 29.99 pul 2 mi NE 26.8 mph - -   Desconocido
10:41 PM 59.0 ° F 24.8 ° F 27% 30.02 pul 10.0 mi NO 26.5 mph - N/A   Despejado
10:50 PM 59 ° F 37 ° F 32% 30.05 pul 2 mi Norte 29.1 mph - -   Desconocido